• Processing (Info)

  • MPEC 2014-L41 : 2014 LZ20

    The following Minor Planet Electronic Circular may be linked-to from your own Web pages, but must not otherwise be redistributed electronically.

    A form allowing access to any MPEC is at the bottom of this page.


    Read MPEC 2014-L40 Read MPEC 2014-L42


    M.P.E.C. 2014-L41                                Issued 2014 June 7, 23:34 UT
    
         The Minor Planet Electronic Circulars contain information on unusual
             minor planets and routine data on comets.  They are published
       on behalf of Commission 20 of the International Astronomical Union by the
              Minor Planet Center, Smithsonian Astrophysical Observatory,
                              Cambridge, MA 02138, U.S.A.
    
                 Prepared using the Tamkin Foundation Computer Network
    
                                  MPC@CFA.HARVARD.EDU
                URL http://www.minorplanetcenter.net/    ISSN 1523-6714
    
                                       2014 LZ20
    
    Observations:
         K14L20Z* C2014 06 06.37487 16 35 05.410-12 11 43.80         19.5 iLEL041F51
         K14L20Z  C2014 06 06.38752 16 34 49.800-12 12 18.06         19.5 iLEL041F51
         K14L20Z  C2014 06 06.41286 16 34 18.578-12 13 25.04         19.5 iLEL041F51
         K14L20Z KC2014 06 07.32282 16 16 35.31 -12 51 38.8          19.1 RoEL041291
         K14L20Z KC2014 06 07.32353 16 16 34.44 -12 51 40.2          19.2 RoEL041291
         K14L20Z KC2014 06 07.32427 16 16 33.55 -12 51 42.1          19.3 RoEL041291
         K14L20Z KC2014 06 07.95043 16 04 35.99 -13 15 33.8                qEL041J95
         K14L20Z KC2014 06 07.95659 16 04 28.70 -13 15 47.3                qEL041J95
         K14L20Z KC2014 06 07.96420 16 04 19.72 -13 16 03.2          19.0 RqEL041J95
    
    Observer details:
    291 LPL/Spacewatch II.  Observer R. S. McMillan.  1.8-m f/2.7 reflector + CCD.
    F51 Pan-STARRS 1, Haleakala.  Observers N. Primak, A. Schultz, T. Goggia,
        M. Willman.  1.8-m Ritchey-Chretien + CCD.
    J95 Great Shefford.  Observer P. Birtwhistle.  0.40-m f/6.0 Schmidt-Cassegrain
        + CCD.
    
    Orbital elements:
    2014 LZ20                                                Earth MOID = 0.0286 AU
    Epoch 2014 May 23.0 TT = JDT 2456800.5                  MPC
    M 158.37295              (2000.0)            P               Q
    n   1.53387150     Peri.  355.07984     +0.26080185     -0.95952039
    a   0.7446349      Node    79.77319     +0.88937502     +0.19597009
    e   0.4367803      Incl.    6.20188     +0.37549229     +0.20227790
    P   0.64           H   25.2           G   0.15           U   9
    Residuals in seconds of arc
    140606 F51  0.1+  0.1-    140607 291  0.0   0.1+    140607 J95  0.2-  0.1+
    140606 F51  0.2-  0.3-    140607 291  0.1-  0.3+    140607 J95  0.1-  0.3-
    140606 F51  0.1+  0.3+    140607 291  0.0   0.1+    140607 J95  0.3+  0.0
    
    Ephemeris:
    2014 LZ20                a,e,i = 0.74, 0.44, 6                   q = 0.4194
    Date    TT    R. A. (2000) Decl.     Delta      r     Elong.  Phase     V
    2014 05 08    20 52 51.7 +01 50 59   0.1459  1.0218    90.9    80.9    23.9
    ...
    2014 05 23    19 53 10.7 -01 38 40   0.08782 1.0586   119.7    56.2    22.1
    ...
    2014 05 31    18 28 36.6 -06 41 32   0.06319 1.0678   147.7    30.5    20.7
    ...
    2014 06 06    16 42 22.3 -11 53 24   0.05619 1.0699   168.9    10.5    19.8
    2014 06 07    16 22 53.7 -12 36 54   0.05645 1.0698   166.7    12.6    19.9
    2014 06 08    16 03 39.8 -13 14 58   0.05712 1.0697   162.9    16.2    20.0
    ...
    2014 06 14    14 25 51.3 -15 08 44   0.06862 1.0663   136.4    41.1    21.1
    ...
    2014 06 22    13 11 45.3 -15 07 51   0.09555 1.0555   111.8    63.4    22.5
    ...
    2014 07 07    12 16 58.8 -14 36 54   0.1535  1.0155    85.2    86.1    24.2
    
    A. U. Tomatic                (C) Copyright 2014 MPC           M.P.E.C. 2014-L41
    

    Read MPEC 2014-L40 Read MPEC 2014-L42


    MPEC number:

    Enter an MPEC number in one of the following forms:

    • 1997-B01 (the full form)
    • J97B01 (the packed version of the full form)
    • B01 (the abbreviated form)